Theta_e
319 319 319 319 319 320 321 321 321 322 321 322 322 322 323 324 323 320 312 320 322 350 344 332 337 329 326 320 328 326 312 308 311 312 314 325 325 336 339 334 334 337 336 339 347
318 318 318 318 319 319 320 320 321 321 321 321 321 322 323 324 317 314 328 345 349 352 321 316 312 314 311 315 320 318 310 312 319 319 319 322 327 330 331 330 332 334 339 343 346
317 317 317 318 318 318 319 319 320 320 320 320 321 322 324 322 312 310 343 346 349 348 320 317 313 311 308 310 313 317 314 320 320 322 321 322 325 328 329 325 331 332 336 340 342
317 317 317 317 317 318 318 319 319 319 319 319 321 322 324 316 297 313 352 355 350 337 317 313 310 308 307 308 312 308 320 321 320 326 322 322 325 327 329 329 336 339 341 341 341
316 316 316 316 317 317 318 318 318 317 318 319 320 323 314 304 306 319 352 353 340 321 314 311 310 311 309 310 310 310 318 321 323 321 323 323 324 326 328 334 338 341 342 341 342
316 316 317 317 316 317 318 318 317 317 318 319 320 323 309 298 311 318 326 334 324 316 312 311 310 314 311 308 306 318 320 320 319 319 321 324 327 328 330 335 335 340 340 341 342
316 316 316 316 317 316 316 316 316 316 318 320 319 321 312 306 314 314 316 316 311 315 309 311 312 310 310 308 313 321 314 317 318 319 319 325 319 324 331 333 333 336 337 340 341
315 316 316 316 316 316 316 315 315 317 320 319 321 316 304 315 319 319 313 311 312 310 310 311 315 310 309 311 314 314 310 310 316 321 323 321 313 327 331 330 329 332 334 336 338
315 315 315 315 315 314 313 314 316 322 320 321 313 311 307 325 321 322 315 311 310 309 310 316 309 307 306 304 301 305 307 306 311 320 320 318 313 327 331 328 327 329 331 333 334
314 314 314 314 314 313 312 313 314 318 320 322 322 308 310 311 319 317 315 314 309 306 307 305 303 301 301 300 295 306 302 309 310 318 316 316 315 325 329 328 327 329 330 331 332
314 314 313 314 313 312 309 303 302 303 314 307 306 311 313 317 320 316 315 311 307 303 299 301 298 297 300 304 304 306 304 309 314 315 316 314 316 322 326 326 326 327 329 330 332
314 313 313 313 312 311 306 299 300 304 297 307 310 311 317 317 312 315 315 308 302 297 299 297 296 302 306 307 305 303 300 303 309 315 315 313 315 320 323 323 325 326 326 328 331
314 313 313 312 311 306 301 301 306 302 297 304 308 309 311 315 311 311 312 307 301 297 297 294 299 307 308 306 305 300 300 301 306 313 316 316 311 316 322 324 326 327 329 330 330
313 313 312 310 299 301 301 302 304 303 293 299 303 307 310 312 307 317 313 308 302 300 299 298 303 306 306 305 305 296 305 307 308 308 303 314 301 309 317 320 324 326 328 330 331
313 312 310 309 301 300 301 303 302 304 287 304 306 313 308 307 307 310 313 307 303 299 299 297 301 301 303 306 307 304 306 304 307 306 304 306 302 307 315 314 319 324 327 331 333
312 311 309 305 303 304 306 303 301 294 287 302 308 304 303 304 306 306 308 307 307 300 299 300 305 304 304 307 308 309 303 299 299 299 296 305 302 300 310 316 319 322 326 331 332
310 309 307 307 297 300 300 299 292 287 300 299 299 301 299 300 304 303 302 300 299 293 292 299 301 303 307 302 304 302 295 289 291 293 294 300 301 303 313 320 321 321 323 330 332
308 307 306 307 305 305 297 293 287 296 295 300 301 301 298 301 302 302 298 299 300 296 294 292 293 301 304 303 300 298 296 290 286 287 293 297 298 306 314 320 323 324 324 329 330
307 299 300 303 307 300 296 286 290 295 302 300 299 296 296 299 299 300 298 299 302 299 294 290 293 302 305 305 304 299 294 298 291 291 290 293 297 305 313 314 320 319 320 325 329
301 296 298 307 307 297 292 288 291 300 302 299 293 296 293 295 296 296 296 302 301 301 300 296 291 299 305 305 304 303 302 293 291 287 287 292 294 297 306 310 315 317 317 323 328
294 292 297 307 301 294 286 288 293 299 299 296 296 295 296 295 297 294 297 302 305 304 302 296 294 295 300 298 299 299 295 294 294 292 289 288 292 302 307 312 313 316 319 322 326
291 284 300 304 295 290 287 291 298 296 299 297 297 297 295 298 296 296 297 300 307 307 298 298 294 294 295 301 303 301 299 298 295 290 289 291 294 306 309 314 316 317 318 319 323
293 289 301 299 289 290 294 298 300 299 299 296 295 299 302 299 294 298 300 307 310 306 302 298 291 289 291 294 298 298 299 296 294 293 292 292 295 307 310 313 317 317 318 318 320
293 287 294 295 292 290 290 292 296 305 303 304 300 303 302 298 301 299 302 308 310 306 317 307 291 296 293 294 298 297 300 299 297 293 292 294 297 303 308 311 312 315 318 319 320
294 290 292 288 291 290 289 293 296 296 301 304 299 302 304 298 301 302 305 308 312 315 310 302 294 293 300 300 300 300 300 300 298 298 297 298 299 305 309 311 313 315 315 316 318
292 292 295 293 291 290 290 291 294 295 296 299 299 307 306 300 304 302 304 304 307 308 303 297 294 296 295 299 300 299 302 303 303 299 299 299 299 306 312 312 312 314 315 315 317
295 297 294 294 291 289 290 293 295 297 299 300 307 304 304 306 309 308 308 307 309 305 302 294 297 292 295 297 300 295 300 302 304 305 303 298 302 306 308 312 313 314 316 317 318
Wind_Speed
21 21 21 22 22 21 20 20 19 18 16 17 17 16 16 16 17 1 7 11 8 10 8 7 5 6 5 5 6 4 5 2 6 6 5 9 6 8 5 11 4 5 8 12 17
22 22 22 22 22 22 21 21 20 19 18 16 17 17 13 13 4 8 14 12 11 13 6 8 5 5 3 2 1 5 5 8 7 8 10 14 14 14 7 11 3 12 15 17 18
22 23 23 23 22 23 22 22 21 20 18 17 15 16 12 8 5 10 3 17 14 12 6 6 4 4 2 4 5 6 8 9 7 8 20 15 12 3 18 7 10 23 21 21 17
24 23 23 23 24 23 22 22 23 21 20 17 15 14 13 2 7 2 3 3 14 10 4 5 5 5 3 4 4 5 13 7 8 8 13 18 9 7 7 5 17 18 22 20 18
25 25 24 24 24 24 24 22 22 22 20 17 13 11 4 2 14 1 3 6 9 9 8 5 5 6 4 5 5 7 4 11 10 9 13 10 9 7 5 12 17 19 20 20 18
24 25 25 24 24 24 24 23 23 22 21 17 10 8 2 5 5 5 4 6 5 6 8 6 7 7 2 4 1 4 6 11 9 8 7 13 7 7 8 15 18 20 20 18 18
24 24 26 26 26 26 24 24 25 24 21 13 6 3 2 19 3 5 1 3 3 8 6 6 3 1 2 7 4 15 7 8 3 3 7 14 5 7 17 18 18 19 17 18 18
25 25 25 26 27 27 25 25 27 24 14 6 6 2 9 6 4 7 5 5 3 3 3 4 7 4 5 6 6 8 5 11 4 6 8 7 4 12 17 19 18 17 16 16 17
25 26 27 26 26 27 27 29 24 7 5 6 2 2 11 7 4 5 6 5 5 4 3 4 3 6 3 6 6 6 14 4 5 8 4 3 6 15 17 16 16 15 16 15 13
24 25 26 26 26 27 29 26 8 3 3 5 6 2 5 3 5 2 4 5 3 5 2 5 2 4 3 5 8 14 6 8 13 16 6 6 6 20 19 17 18 16 15 15 14
25 25 26 27 27 25 19 6 5 4 2 6 8 8 20 9 5 4 3 5 3 4 7 4 4 8 11 8 8 12 4 15 12 7 6 7 11 21 20 16 16 16 15 14 15
25 25 27 28 28 28 1 3 2 3 14 12 21 17 19 3 6 17 7 7 6 7 5 2 8 10 7 6 8 5 5 7 3 7 7 3 6 18 21 22 21 19 18 18 16
25 25 25 29 31 3 3 6 5 4 4 10 12 11 11 13 11 15 10 5 5 6 6 7 6 8 7 5 7 6 6 5 7 9 6 9 3 9 13 8 13 15 16 14 18
25 25 24 30 3 5 6 2 3 4 3 11 6 8 8 11 7 11 10 8 3 11 6 6 9 8 5 5 7 3 9 8 9 16 8 7 6 9 14 15 13 14 14 17 18
24 25 23 12 8 4 4 9 7 3 5 6 5 1 3 15 5 10 7 5 13 6 8 9 7 7 5 7 7 10 7 8 9 15 7 4 4 7 12 11 20 20 19 18 17
26 27 23 3 4 12 11 11 1 6 10 8 4 3 4 4 6 2 7 5 7 6 3 11 4 6 9 6 8 3 4 8 6 5 4 13 7 5 13 28 26 17 18 20 19
28 31 19 5 8 3 5 4 4 5 5 6 4 5 3 1 9 4 7 10 11 8 5 3 8 4 4 5 4 6 7 3 4 2 7 8 4 11 20 25 25 26 21 22 19
31 34 7 8 9 6 2 5 5 8 8 6 6 8 3 2 5 4 6 12 7 5 6 7 10 9 4 9 9 8 11 9 8 5 7 5 8 12 16 22 21 16 20 19 21
28 5 5 6 9 4 5 3 9 7 4 3 5 5 5 4 4 5 7 14 15 12 9 7 9 5 6 7 11 5 5 10 7 1 4 5 7 8 7 11 16 19 17 19 22
9 5 6 2 10 4 5 8 7 6 5 4 1 2 2 3 7 6 4 7 13 12 8 10 2 7 8 5 6 13 8 2 2 6 5 4 4 7 8 8 11 13 18 20 19
3 6 4 4 3 4 5 9 7 7 6 4 3 5 5 6 7 2 9 10 11 14 14 9 7 9 6 8 10 2 2 4 5 5 8 4 8 9 9 10 18 20 23 17 17
4 5 4 2 1 1 4 8 5 5 4 5 4 6 5 5 7 6 10 11 12 17 13 11 8 11 13 6 4 8 11 10 8 6 1 5 9 5 9 9 12 13 13 10 12
7 6 6 3 2 3 6 4 2 2 7 4 6 4 6 10 7 7 11 21 18 20 19 10 5 5 8 4 1 5 7 6 4 5 9 8 8 1 3 6 10 11 10 12 13
3 5 5 4 1 1 5 7 5 5 6 8 7 7 9 4 9 9 15 16 14 15 26 17 6 16 15 9 6 6 6 7 9 6 7 7 6 4 7 8 8 9 11 14 16
3 5 2 5 3 6 3 4 5 4 5 7 4 12 9 8 5 5 11 10 11 8 8 15 12 9 20 15 6 6 6 7 8 9 10 9 10 10 13 13 15 14 9 12 13
2 3 6 5 4 4 2 3 4 2 4 7 8 10 8 7 5 3 6 6 7 9 7 6 7 9 8 12 13 11 14 12 14 6 4 8 7 9 13 5 5 12 12 10 10
2 4 0 6 5 3 3 5 9 12 8 11 9 5 4 4 6 8 10 12 9 4 5 1 9 7 17 6 7 5 9 17 7 1 8 7 12 6 4 8 12 12 14 14 10
Wind_Direction
354 351 348 344 342 341 339 337 336 337 336 333 327 326 320 316 313 270 244 220 186 143 177 137 216 182 184 205 198 145 52 168 168 168 145 158 135 192 96 135 143 170 138 144 149
351 349 346 343 340 338 337 333 332 333 331 332 327 322 322 328 304 262 235 207 180 148 169 186 191 176 189 213 224 107 131 221 184 167 158 177 157 165 130 166 92 109 115 142 152
348 346 344 341 338 335 334 330 327 326 327 326 324 319 318 326 310 249 192 212 202 171 196 161 127 145 160 176 194 191 202 205 178 184 165 159 169 163 146 197 184 151 147 156 163
344 343 341 339 336 333 330 327 323 321 320 321 320 318 316 271 285 278 354 207 182 170 179 157 140 145 157 214 233 178 232 177 158 144 141 161 134 116 163 229 157 150 150 159 170
341 338 336 336 334 330 327 324 319 317 315 316 314 319 320 309 250 4 305 135 134 150 167 149 143 160 180 201 251 206 167 165 141 129 137 134 141 134 183 136 140 148 156 167 177
338 335 333 331 331 330 325 320 316 313 312 307 302 311 244 263 248 339 194 139 158 150 156 157 194 199 200 250 246 154 136 126 122 162 133 121 123 97 157 144 146 156 165 173 179
336 333 330 329 328 327 323 317 314 311 306 291 263 262 209 238 297 336 305 211 130 167 154 194 179 26 98 320 265 127 95 75 99 169 118 113 64 153 152 154 152 163 170 176 186
333 331 329 327 326 323 320 315 313 311 299 247 201 203 243 254 280 284 180 281 153 167 200 190 160 176 157 263 42 95 38 140 229 172 174 87 191 157 163 163 165 169 175 183 192
331 330 328 327 324 322 319 314 314 332 96 159 183 195 265 305 253 262 164 216 116 152 244 274 180 184 127 104 31 50 171 213 182 208 138 115 133 174 171 173 174 180 182 188 192
331 328 325 325 323 323 320 306 274 18 176 208 254 329 277 301 322 292 220 155 149 134 173 195 109 135 60 112 176 179 187 210 170 201 182 202 168 165 176 174 182 189 195 198 194
331 327 324 322 323 323 333 347 6 350 189 232 236 259 286 275 271 270 208 120 123 125 161 203 138 193 196 185 146 149 185 205 203 178 127 191 152 175 181 185 189 193 197 203 208
329 326 325 322 321 321 247 7 42 131 296 233 244 239 245 71 306 287 147 143 145 197 148 78 213 211 184 147 134 141 177 203 321 165 95 170 174 179 184 194 191 188 195 199 203
326 325 327 323 317 334 271 236 35 20 248 275 225 220 214 157 216 252 154 164 158 182 184 171 230 154 181 158 143 163 174 193 186 152 43 114 11 205 215 214 211 204 203 199 189
326 324 329 334 5 332 267 334 329 193 335 278 271 266 160 144 230 216 181 145 197 196 157 215 247 166 175 195 135 238 201 213 135 157 195 166 219 222 211 215 217 213 203 200 192
323 319 329 334 287 295 284 323 336 87 331 262 274 335 185 167 159 217 180 151 195 198 142 234 204 186 173 194 144 230 152 197 171 182 121 218 100 254 164 219 225 213 209 203 195
322 314 327 334 245 246 318 310 61 49 254 304 300 338 111 242 194 127 152 152 153 204 193 209 216 175 192 216 171 216 102 40 50 122 187 201 161 243 181 213 223 215 209 199 194
320 310 305 251 234 148 326 5 66 168 315 276 316 344 146 283 215 181 163 184 177 169 214 174 239 216 159 240 131 94 79 334 341 12 214 182 140 235 210 216 215 203 203 199 193
320 308 249 202 225 283 48 57 205 220 244 305 320 341 354 144 251 216 167 197 233 119 178 169 230 191 196 186 177 180 160 162 189 201 225 138 202 241 210 221 215 209 206 194 196
321 314 270 247 176 147 98 174 205 202 221 291 337 0 319 38 12 163 210 212 210 180 185 159 255 280 210 188 162 207 161 197 135 355 88 217 276 328 322 220 199 199 189 202 199
321 323 271 69 151 113 96 230 220 224 344 21 199 224 291 17 13 36 297 211 220 183 167 213 256 215 235 168 233 198 168 101 359 166 232 240 236 219 219 205 203 194 200 204 198
10 342 275 160 131 49 182 221 238 244 284 224 251 269 253 305 199 233 240 281 243 218 195 156 152 265 156 196 203 124 175 70 129 139 169 221 257 214 224 187 187 197 206 190 187
12 326 340 59 31 243 190 199 225 266 328 283 269 256 250 272 265 254 250 237 254 210 180 200 171 229 226 226 188 183 200 180 199 242 193 164 260 229 219 192 188 200 196 184 181
318 268 299 138 217 264 296 296 289 234 237 222 252 236 337 293 292 222 266 274 257 219 194 172 207 201 326 334 93 180 186 172 123 95 185 152 252 271 177 174 188 177 188 184 188
300 318 307 27 354 47 358 274 258 250 254 253 242 241 258 252 207 283 292 284 301 206 199 154 141 202 221 216 161 185 185 195 153 136 168 211 199 247 216 185 204 200 188 191 198
219 255 265 309 324 328 224 278 283 270 255 264 257 212 206 204 226 238 274 305 332 26 218 164 189 175 225 213 188 216 207 204 171 175 167 211 190 213 205 200 203 200 181 186 199
303 349 340 286 295 300 222 251 273 339 272 285 217 201 198 184 189 253 339 310 254 322 358 176 227 154 230 210 196 231 245 209 229 159 122 139 219 215 211 87 127 194 192 195 186
294 314 105 288 308 334 233 345 302 315 261 233 283 284 226 258 281 181 229 245 247 236 311 167 182 137 225 180 167 219 222 194 156 53 142 148 219 167 162 196 199 205 198 195 189